[[{"header":{"parameterUnit":"m.s-1","parameterCategory":1,"la1":30.2991,"la2":30.254,"lo1":-89.0895,"lo2":-89.0444,"dy":0.0017,"dx":0.0017,"nx":28,"ny":28,"refTime":"2024-08-15T09:00:00:Z","depth":0,"parameterNumber":2,"parameterNumberName":"U-component_of_WINDS"},"data":[0,0,0,0,0,0,0,0,0,0,0,0,0,0,0,0,0,0,0,0,0,0,0,0,0,0,0,0,0,0,0,0,0,0,0,0,0,0,0,0,0,0,0,0,0,0,0,0,0,0,0,0,0,0,0,0,0,0,-1.9593,-1.9593,0,-1.9588,-1.9588,-1.9588,-1.9564,-1.9563,-1.9562,-1.9562,-1.9558,-1.9559,-1.9559,0,0,0,0,0,0,0,0,0,0,0,0,0,-1.9583,-1.9583,-1.9593,-1.9593,-1.9592,-1.9588,-1.9588,-1.9588,-1.9564,-1.9563,-1.9562,-1.9562,-1.9558,-1.9559,-1.9559,0,0,0,0,0,0,0,0,0,0,0,0,0,-1.9584,-1.9584,-1.9593,-1.958,-1.9579,-1.9588,-1.9588,-1.9588,-1.9564,-1.9563,-1.9562,-1.9561,-1.9558,-1.9559,-1.9559,-1.9581,0,0,-1.9561,-1.9562,0,0,0,0,0,0,0,0,-1.9584,-1.9584,-1.9582,-1.9581,-1.9579,-1.9575,-1.9583,-1.9585,-1.9564,-1.9569,-1.9562,-1.9561,-1.9565,-1.9565,-1.9566,-1.9581,-1.958,-1.9561,-1.9562,-1.9562,-1.9562,0,0,0,0,0,0,0,-1.9584,-1.9584,-1.9591,-1.9582,-1.958,-1.9575,-1.9574,-1.9584,-1.9572,-1.9569,-1.9567,-1.9567,-1.9564,-1.9565,-1.9566,-1.958,-1.9561,-1.9562,-1.9562,-1.9563,-1.9615,-1.9616,0,0,0,0,0,0,-1.9585,-1.9584,-1.9591,-1.9591,-1.9579,-1.9576,-1.9575,-1.9578,-1.9572,-1.957,-1.9568,-1.9566,-1.9565,-1.9565,-1.9565,-1.9591,-1.9562,-1.9563,-1.9563,-1.9614,-1.9615,-1.9616,0,0,0,0,0,0,-1.9585,-1.9586,-1.9591,-1.9587,-1.9587,-1.9577,-1.958,-1.9578,-1.9579,-1.9571,-1.9569,-1.9571,-1.9564,-1.9564,-1.9578,-1.9591,-1.9563,-1.9564,-1.9613,-1.9614,-1.9616,-1.9642,0,0,0,0,0,0,-1.9585,-1.9586,-1.9593,-1.9587,-1.9588,-1.9602,-1.9581,-1.9578,-1.958,-1.9578,-1.9573,-1.9572,-1.9563,-1.9577,-1.9578,-1.9591,-1.9564,-1.9612,-1.9613,-1.9615,-1.964,-1.9644,-1.9648,0,0,0,0,0,-1.9585,-1.9601,-1.9594,-1.9595,-1.9596,-1.9603,-1.9603,-1.9593,-1.9581,-1.9589,-1.9584,-1.9572,-1.9589,-1.9578,-1.958,-1.9593,-1.9611,-1.9613,-1.9615,-1.9638,-1.9643,-1.9648,0,0,0,0,0,0,-1.9608,-1.96,-1.9592,-1.9606,-1.9606,-1.9599,-1.9608,-1.9598,-1.9601,-1.9599,-1.9586,-1.9585,-1.96,-1.9598,-1.9586,-1.9615,-1.9598,-1.9601,-1.9615,-1.962,-1.9624,-1.9624,-1.9565,0,0,0,0,0,-1.9615,-1.9621,-1.9613,-1.9627,-1.9627,-1.9618,-1.962,-1.9613,-1.9612,-1.9611,-1.9607,-1.9607,-1.9613,-1.9616,-1.9621,-1.964,-1.964,-1.965,-1.9654,-1.9658,-1.966,-1.9671,-1.9676,-1.9624,-1.9624,-1.9623,0,0,-1.9629,-1.9626,-1.963,-1.9632,-1.963,-1.9637,-1.9618,-1.9625,-1.9631,-1.9612,-1.9624,-1.9622,-1.9621,-1.9638,-1.9645,-1.9636,-1.9675,-1.9661,-1.9663,-1.9664,-1.9674,-1.9679,-1.9684,-1.9625,-1.9625,-1.9625,0,0,-1.9659,-1.9656,-1.9668,-1.9667,-1.9665,-1.966,-1.9663,-1.9658,-1.9656,-1.9668,-1.9654,-1.9662,-1.9671,-1.9671,-1.9673,-1.9706,-1.9695,-1.9708,-1.9728,-1.974,-1.9744,-1.9747,-1.976,-1.9764,-1.971,-1.971,-1.971,0,-1.9676,-1.9686,-1.9675,-1.9684,-1.9686,-1.967,-1.9683,-1.9683,-1.9683,-1.9685,-1.9676,-1.9689,-1.9687,-1.9704,-1.9712,-1.9714,-1.9718,-1.9707,-1.9744,-1.9748,-1.9751,-1.9762,-1.9767,-1.9712,-1.9712,-1.9711,-1.9711,0,-1.9708,-1.9715,-1.9725,-1.9726,-1.9729,-1.9739,-1.9731,-1.9736,-1.9729,-1.9725,-1.9738,-1.9736,-1.9741,-1.9745,-1.9738,-1.9762,-1.9757,-1.9746,-1.9729,-1.9757,-1.9768,-1.9772,-1.9714,-1.9713,-1.9713,-1.9713,0,0,-1.975,-1.9746,-1.975,-1.9751,-1.9749,-1.9754,-1.9766,-1.977,-1.9775,-1.9777,-1.9786,-1.9796,-1.9787,-1.9788,-1.9782,-1.9792,-1.9819,-1.978,-1.978,-1.9787,-1.9847,-1.9855,-1.986,-1.9813,-1.9814,-1.9814,-1.9847,0,-1.9778,-1.9795,-1.9787,-1.9806,-1.9813,-1.98,-1.981,-1.9811,-1.9808,-1.9814,-1.9812,-1.9819,-1.9806,-1.9807,-1.9817,-1.9814,-1.9831,-1.9811,-1.9822,-1.9823,-1.9822,-1.9865,-1.9873,-1.9904,-1.9851,-1.9852,-1.9852,0,-1.9812,-1.9815,-1.9835,-1.9834,-1.9837,-1.9845,-1.985,-1.9856,-1.9858,-1.9855,-1.9859,-1.985,-1.9863,-1.9847,-1.9864,-1.9851,-1.9856,-1.9856,-1.9857,-1.9856,-1.9838,-1.9866,-1.9913,-1.9918,-1.9859,-1.9858,-1.9858,0,-1.9841,-1.985,-1.9864,-1.9865,-1.9864,-1.987,-1.987,-1.9871,-1.9875,-1.988,-1.9882,-1.9889,-1.9892,-1.9898,-1.9892,-1.9881,-1.9911,-1.9894,-1.991,-1.991,-1.9916,-1.9915,-1.9964,-1.992,-1.992,-1.9919,-1.9919,0,-1.9872,-1.9885,-1.9877,-1.9885,-1.9899,-1.9891,-1.9906,-1.9904,-1.9906,-1.9914,-1.9904,-1.9913,-1.9905,-1.9913,-1.9909,-1.9925,-1.9927,-1.9926,-1.9924,-1.9926,-1.9926,-1.9928,-1.9926,-1.9921,-1.992,-1.992,-1.992,0,-1.9906,-1.9901,-1.9914,-1.9913,-1.9913,-1.9924,-1.9923,-1.9931,-1.9929,-1.994,-1.9942,-1.9938,-1.9948,-1.9943,-1.9953,-1.9951,-1.9971,-1.9967,-1.997,-1.9969,-1.9985,-1.9984,-2.0036,-2.0043,-1.9995,-1.9995,-1.9995,0,-1.9926,-1.9935,-1.9935,-1.994,-1.9941,-1.9949,-1.9954,-1.9947,-1.9952,-1.9956,-1.9964,-1.9973,-1.9979,-1.9996,-1.9994,-2.0003,-1.9999,-2.0017,-2.0,-2.0002,-1.9999,-1.9999,-2.0,-2.002,-2.002,-2.0021,-2.0021,0,-1.9962,-1.996,-1.9966,-1.9972,-1.9978,-1.9982,-1.9986,-1.9991,-1.9985,-1.9991,-2.0001,-2.0006,-2.0017,-2.0026,-2.0034,-2.0036,-2.0028,-2.0027,-2.0031,-2.0032,-2.0034,-2.0034,-1.9979,-2.0025,-2.0025,-2.0024,-2.0024,-2.0024,-1.999,-1.9998,-2.0,-2.0008,-2.001,-2.0015,-2.0023,-2.0022,-2.0029,-2.0037,-2.0033,-2.0045,-2.0049,-2.0059,-2.0061,-2.0072,-2.0065,-2.007,-2.0072,-2.0073,-2.0075,-2.0033,-2.0073,-2.0073,-2.0073,-2.0073,-2.0073,0,-2.0026,-2.0027,-2.0034,-2.004,-2.0047,-2.0039,-2.0044,-2.005,-2.006,-2.0064,-2.0072,-2.0084,-2.0094,-2.0094,-2.0104,-2.0112,-2.0109,-2.0114,-2.0113,-2.0114,-2.0081,-2.0076,-2.0117,-2.0117,-2.0117,-2.0117,-2.0117,-2.0117,-2.0045,-2.0059,-2.0058,-2.0074,-2.0075,-2.0086,-2.0089,-2.0094,-2.0097,-2.0111,-2.0119,-2.0119,-2.0123,-2.0133,-2.0142,-2.0142,-2.0146,-2.0153,-2.0152,-2.0121,-2.0116,-2.0112,-2.0108,-2.0154,-2.0154,-2.0185,-2.0185,-2.0185]},{"header":{"parameterUnit":"m.s-1","parameterCategory":1,"la1":30.2991,"la2":30.254,"lo1":-89.0895,"lo2":-89.0444,"dy":0.0017,"dx":0.0017,"nx":28,"ny":28,"refTime":"2024-08-15T09:00:00:Z","depth":0,"parameterNumber":3,"parameterNumberName":"V-component_of_WINDS"},"data":[0,0,0,0,0,0,0,0,0,0,0,0,0,0,0,0,0,0,0,0,0,0,0,0,0,0,0,0,0,0,0,0,0,0,0,0,0,0,0,0,0,0,0,0,0,0,0,0,0,0,0,0,0,0,0,0,0,0,3.3356,3.3357,0,3.3471,3.3473,3.3474,3.3557,3.3558,3.3559,3.356,3.3675,3.3677,3.368,0,0,0,0,0,0,0,0,0,0,0,0,0,3.3206,3.3208,3.3356,3.3357,3.3359,3.3471,3.3473,3.3474,3.3557,3.3558,3.3559,3.356,3.3674,3.3677,3.368,0,0,0,0,0,0,0,0,0,0,0,0,0,3.3291,3.3209,3.3356,3.3414,3.342,3.3471,3.3473,3.3475,3.3557,3.3558,3.3559,3.356,3.3673,3.3677,3.368,3.3681,0,0,3.3691,3.3693,0,0,0,0,0,0,0,0,3.3286,3.3297,3.3404,3.341,3.3417,3.3501,3.3462,3.3544,3.3557,3.3505,3.356,3.3561,3.3616,3.3624,3.3644,3.3687,3.3692,3.3692,3.3694,3.3695,3.3696,0,0,0,0,0,0,0,3.328,3.3292,3.3402,3.3405,3.3413,3.3434,3.3447,3.3478,3.3553,3.351,3.3516,3.3529,3.362,3.364,3.3647,3.3693,3.3691,3.3695,3.3697,3.3698,3.3744,3.3743,0,0,0,0,0,0,3.3266,3.3287,3.3398,3.3405,3.3353,3.3436,3.345,3.3473,3.3553,3.3566,3.3528,3.3532,3.3633,3.3643,3.3651,3.3659,3.3695,3.3699,3.3701,3.3745,3.3744,3.3743,0,0,0,0,0,0,3.3262,3.3275,3.3393,3.3348,3.3364,3.3437,3.3462,3.3475,3.3495,3.3567,3.358,3.3534,3.3634,3.3646,3.3674,3.3664,3.37,3.3704,3.3746,3.3745,3.3744,3.3672,0,0,0,0,0,0,3.3257,3.3273,3.3274,3.3347,3.3366,3.3414,3.3461,3.3476,3.3501,3.3508,3.3577,3.3589,3.3636,3.3668,3.3677,3.3669,3.3706,3.3748,3.3746,3.3744,3.3676,3.3668,3.3662,0,0,0,0,0,3.3252,3.3248,3.3274,3.3287,3.337,3.3413,3.3424,3.3479,3.35,3.3502,3.3548,3.3587,3.3663,3.367,3.3681,3.3674,3.3748,3.3746,3.3744,3.3679,3.367,3.3662,0,0,0,0,0,0,3.3171,3.3259,3.3288,3.3308,3.3353,3.3427,3.3431,3.3468,3.3506,3.3511,3.3577,3.3592,3.3613,3.3646,3.3652,3.368,3.3711,3.3711,3.3657,3.3649,3.3643,3.3633,3.3709,0,0,0,0,0,3.3156,3.3184,3.326,3.327,3.3291,3.3357,3.3378,3.3417,3.3465,3.3484,3.3532,3.3577,3.3611,3.3632,3.3668,3.3681,3.3698,3.3682,3.3675,3.367,3.3668,3.3679,3.3673,3.3736,3.3736,3.3736,0,0,3.3124,3.3176,3.319,3.3255,3.3294,3.3322,3.3372,3.3399,3.342,3.3488,3.3517,3.3554,3.3608,3.3629,3.364,3.3658,3.3655,3.3667,3.3662,3.3664,3.3676,3.367,3.3665,3.3735,3.3735,3.3735,0,0,3.3081,3.3123,3.3137,3.3175,3.3234,3.3279,3.3282,3.3351,3.3379,3.3409,3.3461,3.3487,3.3545,3.3581,3.3608,3.358,3.3617,3.359,3.3554,3.3564,3.3559,3.3555,3.3545,3.3541,3.3589,3.3589,3.3589,0,3.3034,3.3078,3.3139,3.3163,3.3191,3.3255,3.327,3.3304,3.3371,3.3388,3.3407,3.3482,3.3523,3.3553,3.3547,3.3566,3.3572,3.3582,3.3555,3.3551,3.3548,3.354,3.3536,3.3585,3.3585,3.3586,3.3586,0,3.3017,3.3047,3.3052,3.3116,3.3144,3.3163,3.3227,3.3248,3.3285,3.3327,3.3358,3.341,3.3458,3.3468,3.3504,3.3504,3.3513,3.3542,3.3574,3.3538,3.3531,3.3528,3.358,3.3581,3.3582,3.3583,0,0,3.2924,3.3024,3.3024,3.3055,3.3126,3.315,3.3172,3.322,3.3237,3.3282,3.3302,3.335,3.3378,3.3408,3.3449,3.3457,3.3433,3.3486,3.3488,3.3474,3.3437,3.3414,3.3409,3.3458,3.3458,3.3458,3.3432,0,3.2891,3.2936,3.2992,3.3017,3.3046,3.3109,3.3129,3.3174,3.3214,3.3244,3.3289,3.3322,3.3357,3.3375,3.3386,3.3433,3.3426,3.3436,3.3477,3.3478,3.3461,3.3405,3.3381,3.3354,3.343,3.3429,3.3429,0,3.2858,3.2901,3.2929,3.2999,3.3013,3.303,3.3079,3.3107,3.316,3.3189,3.3223,3.3268,3.3295,3.3324,3.3362,3.3368,3.3388,3.3414,3.3414,3.3419,3.345,3.3408,3.3347,3.3342,3.3425,3.3426,3.3426,0,3.2787,3.2852,3.2878,3.2902,3.2984,3.2994,3.3029,3.3083,3.3109,3.3151,3.3169,3.3214,3.3238,3.3272,3.3327,3.3343,3.3359,3.3393,3.3384,3.3382,3.3383,3.3382,3.3323,3.3397,3.3397,3.3397,3.3397,0,3.2744,3.2759,3.2847,3.2863,3.2881,3.2946,3.2963,3.3003,3.3051,3.3076,3.3132,3.3154,3.3226,3.3256,3.33,3.3325,3.3336,3.336,3.3371,3.3354,3.3351,3.3368,3.3371,3.3396,3.3397,3.3397,3.3397,0,3.2667,3.2727,3.2759,3.2835,3.2854,3.2865,3.2929,3.2947,3.2992,3.3022,3.3033,3.3102,3.3141,3.32,3.3256,3.3285,3.3303,3.3322,3.3285,3.3292,3.3279,3.3279,3.3228,3.3225,3.33,3.33,3.3299,0,3.2635,3.2649,3.2726,3.2747,3.278,3.2813,3.284,3.2905,3.2931,3.2993,3.3003,3.3047,3.3084,3.3143,3.3198,3.3242,3.3262,3.3241,3.3269,3.3252,3.3261,3.326,3.3261,3.3234,3.3233,3.3232,3.3231,0,3.2572,3.2602,3.2639,3.2687,3.2718,3.2758,3.2801,3.2815,3.289,3.2916,3.2957,3.2986,3.3044,3.3087,3.3138,3.3173,3.3214,3.3223,3.3223,3.3205,3.3183,3.3195,3.3267,3.3223,3.3224,3.3224,3.3225,3.3225,3.2517,3.2532,3.2589,3.2629,3.2669,3.2708,3.2729,3.2777,3.2813,3.2866,3.2902,3.2941,3.2995,3.3068,3.3102,3.3133,3.3151,3.315,3.315,3.3149,3.3143,3.3179,3.3142,3.3143,3.3143,3.3143,3.3144,0,3.2456,3.2497,3.2533,3.2593,3.2624,3.2662,3.2712,3.2736,3.277,3.2817,3.2854,3.2901,3.2943,3.3003,3.3049,3.3063,3.3083,3.3072,3.3072,3.3079,3.3125,3.312,3.3055,3.3055,3.3055,3.3055,3.3056,3.3056,3.2428,3.2456,3.2492,3.2541,3.2581,3.2621,3.2646,3.2683,3.2721,3.2772,3.2808,3.2847,3.2899,3.295,3.299,3.3007,3.3021,3.3005,3.3027,3.3068,3.3076,3.3083,3.3079,3.3007,3.3007,3.2979,3.2979,3.2978]}]]